| time (UTC) | temp F | wind direction | speed MPH | gust MPH | rain 1hr in | rain 24hr in | rain mn in | humidity % | barometer mb |
| 20260502213051 | 63 | 52 | 2.0 | 5.0 | 0.00 | 0.00 | 0.00 | 90 | 1017.3 |
| 20260502211551 | 63 | 44 | 3.0 | 7.0 | 0.00 | 0.00 | 0.00 | 91 | 1017.1 |
| 20260502210050 | 63 | 38 | 2.0 | 6.0 | 0.00 | 0.00 | 0.00 | 90 | 1017.2 |
| 20260502204602 | 63 | 1 | 3.0 | 5.0 | 0.00 | 0.00 | 0.00 | 89 | 1017.0 |
| 20260502203108 | 64 | 48 | 5.0 | 11.0 | 0.00 | 0.00 | 0.00 | 89 | 1016.7 |
| 20260502201545 | 64 | 94 | 5.0 | 11.0 | 0.00 | 0.00 | 0.00 | 89 | 1016.5 |
| 20260502200052 | 64 | 77 | 6.0 | 13.0 | 0.00 | 0.00 | 0.00 | 89 | 1016.3 |
| 20260502194554 | 64 | 77 | 6.0 | 11.0 | 0.00 | 0.00 | 0.00 | 89 | 1016.2 |
| 20260502193051 | 64 | 78 | 5.0 | 8.0 | 0.00 | 0.00 | 0.00 | 89 | 1016.3 |
| 20260502191558 | 65 | 59 | 4.0 | 10.0 | 0.00 | 0.00 | 0.00 | 88 | 1016.5 |
| 20260502190054 | 65 | 120 | 3.0 | 11.0 | 0.00 | 0.00 | 0.00 | 88 | 1016.5 |
| 20260502184551 | 65 | 56 | 4.0 | 10.0 | 0.00 | 0.00 | 0.00 | 88 | 1016.2 |
| 20260502183057 | 65 | 73 | 6.0 | 12.0 | 0.00 | 0.00 | 0.00 | 88 | 1016.3 |
| 20260502181608 | 65 | 33 | 7.0 | 12.0 | 0.00 | 0.00 | 0.00 | 87 | 1016.5 |
| 20260502163056 | 67 | 105 | 4.0 | 12.0 | 0.00 | 0.00 | 0.00 | 86 | 1017.1 |
| 20260502161559 | 67 | 80 | 5.0 | 9.0 | 0.00 | 0.00 | 0.00 | 85 | 1017.2 |
| 20260502151602 | 67 | 75 | 5.0 | 9.0 | 0.00 | 0.00 | 0.00 | 84 | 1017.8 |
| 20260502123053 | 69 | 52 | 9.0 | 16.0 | 0.00 | 0.00 | 0.00 | 80 | 1019.1 |
| 20260502121555 | 69 | 72 | 6.0 | 13.0 | 0.00 | 0.00 | 0.00 | 79 | 1019.5 |
| 20260502114556 | 68 | 63 | 5.0 | 15.0 | 0.00 | 0.00 | 0.00 | 82 | 1020.1 |
| 20260502113053 | 68 | 75 | 6.0 | 11.0 | 0.00 | 0.00 | 0.00 | 82 | 1019.8 |
| 20260502111551 | 68 | 131 | 8.0 | 12.0 | 0.00 | 0.00 | 0.00 | 83 | 1020.2 |
| 20260502110058 | 68 | 56 | 7.0 | 12.0 | 0.00 | 0.00 | 0.00 | 83 | 1020.3 |
| 20260502104550 | 67 | 84 | 7.0 | 13.0 | 0.00 | 0.00 | 0.00 | 84 | 1020.4 |
| 20260502103059 | 68 | 88 | 6.0 | 13.0 | 0.00 | 0.00 | 0.00 | 82 | 1020.4 |
| 20260502101552 | 68 | 110 | 6.0 | 12.0 | 0.00 | 0.00 | 0.00 | 82 | 1020.7 |
| 20260502080104 | 66 | 49 | 5.0 | 13.0 | 0.00 | 0.00 | 0.00 | 85 | 1020.6 |
| 20260502070056 | 66 | 59 | 5.0 | 10.0 | 0.00 | 0.00 | 0.00 | 85 | 1020.9 |
| 20260502064600 | 66 | 49 | 5.0 | 11.0 | 0.00 | 0.00 | 0.00 | 84 | 1020.8 |
| 20260502063052 | 65 | 37 | 1.0 | 8.0 | 0.00 | 0.00 | 0.00 | 86 | 1020.7 |
| 20260502061555 | 64 | 45 | 2.0 | 5.0 | 0.00 | 0.00 | 0.00 | 87 | 1020.7 |
| 20260502060054 | 64 | 0 | 0.0 | 1.0 | 0.00 | 0.00 | 0.00 | 89 | 1020.6 |
| 20260502054558 | 64 | 0 | 0.0 | 1.0 | 0.00 | 0.00 | 0.00 | 90 | 1020.5 |
| 20260502053052 | 63 | 0 | 0.0 | 0.0 | 0.00 | 0.00 | 0.00 | 90 | 1020.7 |
| 20260502051552 | 63 | 0 | 0.0 | 0.0 | 0.00 | 0.00 | 0.00 | 90 | 1020.5 |
| 20260502050051 | 63 | 0 | 0.0 | 0.0 | 0.00 | 0.00 | 0.00 | 90 | 1020.3 |
| 20260502044550 | 63 | 0 | 0.0 | 0.0 | 0.00 | 0.00 | 0.00 | 90 | 1020.3 |
| 20260502043056 | 63 | 6 | 1.0 | 3.0 | 0.00 | 0.00 | 0.00 | 89 | 1020.3 |
| 20260502041552 | 63 | 25 | 1.0 | 4.0 | 0.00 | 0.00 | 0.00 | 89 | 1020.3 |
| 20260502040106 | 63 | 26 | 2.0 | 5.0 | 0.00 | 0.00 | 0.00 | 89 | 1020.6 |
| 20260502034554 | 63 | 354 | 3.0 | 6.0 | 0.00 | 0.00 | 0.00 | 90 | 1020.4 |
| 20260502033054 | 63 | 354 | 4.0 | 7.0 | 0.00 | 0.00 | 0.00 | 90 | 1020.5 |
| 20260502031555 | 63 | 17 | 3.0 | 6.0 | 0.00 | 0.00 | 0.00 | 90 | 1020.7 |
| 20260502030051 | 63 | 23 | 2.0 | 4.0 | 0.00 | 0.00 | 0.00 | 89 | 1020.6 |
| 20260502024550 | 64 | 47 | 2.0 | 6.0 | 0.00 | 0.00 | 0.00 | 87 | 1020.6 |
| 20260502023054 | 64 | 68 | 2.0 | 9.0 | 0.00 | 0.00 | 0.00 | 87 | 1020.6 |
| 20260502021550 | 64 | 71 | 4.0 | 10.0 | 0.00 | 0.00 | 0.00 | 86 | 1020.6 |
| 20260502020104 | 64 | 77 | 3.0 | 9.0 | 0.00 | 0.00 | 0.00 | 88 | 1020.7 |
| 20260502014551 | 64 | 79 | 4.0 | 7.0 | 0.00 | 0.00 | 0.00 | 88 | 1020.6 |
| 20260502013052 | 63 | 72 | 1.0 | 4.0 | 0.00 | 0.00 | 0.00 | 90 | 1020.8 |
| 20260502011557 | 62 | 0 | 0.0 | 0.0 | 0.00 | 0.00 | 0.00 | 90 | 1021.0 |
| 20260502010055 | 63 | 0 | 0.0 | 0.0 | 0.00 | 0.00 | 0.00 | 90 | 1021.2 |
| 20260502004556 | 63 | 0 | 0.0 | 0.0 | 0.00 | 0.00 | 0.00 | 90 | 1021.5 |
| 20260502003113 | 63 | 0 | 0.0 | 0.0 | 0.00 | 0.00 | 0.00 | 90 | 1021.7 |
| 20260502001628 | 63 | 320 | 0.0 | 2.0 | 0.00 | 0.00 | 0.00 | 89 | 1022.1 |
| 20260502000052 | 64 | 0 | 0.0 | 1.0 | 0.00 | 0.00 | 0.00 | 88 | 1022.2 |
| 20260501234553 | 65 | 297 | 0.0 | 8.0 | 0.00 | 0.02 | 0.00 | 86 | 1022.2 |
| 20260501233054 | 65 | 66 | 3.0 | 11.0 | 0.00 | 0.02 | 0.00 | 85 | 1022.2 |
| 20260501231554 | 65 | 68 | 4.0 | 10.0 | 0.00 | 0.02 | 0.00 | 86 | 1022.1 |
| 20260501230056 | 65 | 67 | 7.0 | 13.0 | 0.00 | 0.02 | 0.00 | 87 | 1022.0 |
| 20260501224559 | 64 | 79 | 7.0 | 11.0 | 0.00 | 0.02 | 0.00 | 87 | 1022.2 |
| 20260501223051 | 64 | 97 | 7.0 | 10.0 | 0.00 | 0.02 | 0.00 | 87 | 1022.2 |
| 20260501221553 | 64 | 79 | 6.0 | 12.0 | 0.00 | 0.02 | 0.00 | 87 | 1022.2 |
| 20260501220051 | 65 | 48 | 5.0 | 11.0 | 0.00 | 0.02 | 0.00 | 87 | 1022.2 |
| 20260501214549 | 65 | 70 | 4.0 | 9.0 | 0.00 | 0.02 | 0.02 | 87 | 1022.2 |